User: anonymous
Location: Caltech
(34.1382°N, 118.1253°W)
Time: 02:37:17
(UTC-07:00)
Language:

Aureole 3 Rocket - Orbit

View from above orbital plane
View from above orbital plane
View from above satellite
View from above satellite

Ground track
Ground track

The orbit data is extracted from the following two-line orbital elements,

1 12849U 81094B   14110.52625663  .00001260  00000-0  12010-3 0  8678
2 12849 082.4940 330.8490 0911630 272.9281 076.8034 13.47891355586341
Epoch (UTC): 20 April 2014 12:37:48
Eccentricity: 0.0911630
inclination: 82.4940°
perigee height: 400 km
apogee height: 1760 km
right ascension of ascending node: 330.8490°
argument of perigee: 272.9281°
revolutions per day: 13.47891355
mean anomaly at epoch: 76.8034°
orbit number at epoch: 58634

The dashed part of the orbit path shows where the satellite is in the earth's shadow,  

DLR